User: anonymous   Login
Location: Pallagorio
(39.3000°N, 16.9000°E)
Time: 03:59:49
(UTC+00:00)
Language:

CZ-4B R/B - Orbit

View from above orbital plane
View from above orbital plane
View from above satellite
View from above satellite

Ground track
Ground track

The orbit data is extracted from the following two-line orbital elements,

1 29093U 06015B   21107.48049690  .00004411  00000-0  81159-4 0  9994
2 29093  97.6350 296.3756 0048956 300.5052  59.1369 15.48469075833499
Epoch (UTC): 17 April 2021 11:31:54
Eccentricity: 0.0048956
inclination: 97.6350°
perigee height: 388 km
apogee height: 454 km
right ascension of ascending node: 296.3756°
argument of perigee: 300.5052°
revolutions per day: 15.48469075
mean anomaly at epoch: 59.1369°
orbit number at epoch: 83349

The dashed part of the orbit path shows where the satellite is in the earth's shadow,  

DLR